Location: Miles
(41.4492°N, 81.6087°W)
Time: 20:05:57
(UTC+00:00)

Vanguard 2 Rocket - Pass Details

Date: 22 September 2024
Orbit: 553 x 3298 km, 32.9° (Epoch: 11 October)

Event Time Altitude Azimuth Distance (km) Brightness Sun altitude
Rises 08:09:44 0° 266° (W) 4,373 - -33.4°
Reaches altitude 10° 08:12:15 10° 261° (W) 3,687 - -33.0°
Exits shadow 08:20:28 51° 210° (SSW) 2,496 8.6 -31.7°
Maximum altitude 08:22:02 54° 188° (S) 2,562 8.8 -31.5°
Drops below altitude 10° 08:38:23 10° 118° (ESE) 5,909 11.4 -28.9°
Sets 08:43:40 0° 115° (ESE) 7,141 11.9 -28.0°
